Weather reports worldwide

Advertisment
Isle Of Portland, United Kingdom (3857): temperature & dewpoint: 05.12.2019 07:00:00 - 11.12.2019 07:00:00 (GMT)Isle Of Portland, United Kingdom (3857): wind speed & gusts: 05.12.2019 07:00:00 - 11.12.2019 07:00:00 (GMT)Isle Of Portland, United Kingdom (3857): wind direction: 05.12.2019 07:00:00 - 11.12.2019 07:00:00 (GMT)Isle Of Portland, United Kingdom (3857): reduced air pressure: 05.12.2019 07:00:00 - 11.12.2019 07:00:00 (GMT)Isle Of Portland, United Kingdom (3857): visibility: 05.12.2019 07:00:00 - 11.12.2019 07:00:00 (GMT)Isle Of Portland, United Kingdom (3857): precipitation: 05.12.2019 07:00:00 - 11.12.2019 07:00:00 (GMT)
Date & Time tt [°C] td [°C] ff [km/h] ff [kn] fx [km/h] fx [kn] dd ppp [hPa] vv [km] rr [mm]
11.12.2019 07:00:00 8,7 4,4 29 16 - - W 1007,9 10 0,0
11.12.2019 06:00:00 8,7 4,2 37 20 - - W 1008,5 11 0,0
11.12.2019 05:00:00 8,8 4,5 37 20 48 26 W 1009,0 9 0,0
11.12.2019 04:00:00 8,7 4,7 37 20 50 27 W 1009,7 12 0,0
11.12.2019 03:00:00 8,6 4,7 39 21 52 28 W 1010,2 15 0,0
11.12.2019 02:00:00 8,9 4,4 35 19 50 27 W 1010,3 16 0,0
11.12.2019 01:00:00 8,9 4,7 35 19 50 27 W 1010,4 15 0,0
11.12.2019 00:00:00 8,9 4,2 41 22 55 30 W 1010,2 14 0,0
10.12.2019 23:00:00 9,2 5,3 42 23 59 32 W 1010,0 13 0,0
10.12.2019 22:00:00 9,5 4,6 46 25 61 33 WNW 1009,3 14 0,0
10.12.2019 21:00:00 9,6 6,5 42 23 59 32 W 1008,5 15 0,2
10.12.2019 20:00:00 9,4 6,9 46 25 76 41 W 1007,9 10 0,6
10.12.2019 19:00:00 9,5 7,9 57 31 89 48 WNW 1006,1 6 0,4
10.12.2019 18:00:00 11,9 11,7 59 32 83 45 SW 1005,4 4,1 0,2
10.12.2019 17:00:00 11,8 11,6 57 31 80 43 SSW 1006,0 5 0,2
10.12.2019 16:00:00 11,5 11,4 54 29 78 42 SSW 1007,4 3,2 0,0
10.12.2019 15:00:00 11,2 11,0 59 32 76 41 SSW 1008,8 4,4 0,2
10.12.2019 14:00:00 10,9 10,3 54 29 78 42 SSW 1010,3 1,6 0,0
10.12.2019 13:00:00 10,8 10,3 57 31 78 42 SSW 1011,5 3,0 0,2
10.12.2019 12:00:00 10,6 9,9 55 30 74 40 SSW 1012,9 2,7 0,0
10.12.2019 11:00:00 10,3 9,6 55 30 74 40 SSW 1015,0 5 0,4
10.12.2019 10:00:00 9,9 8,9 55 30 74 40 SSW 1016,2 4,1 1,0
10.12.2019 09:00:00 10,0 8,7 50 27 65 35 SSW 1017,7 8 0,8
10.12.2019 08:00:00 10,4 8,0 48 26 63 34 SSW 1018,4 10 0,0
10.12.2019 07:00:00 10,5 7,4 41 22 55 30 SSW 1019,8 11 0,0
10.12.2019 06:00:00 10,3 6,9 39 21 54 29 SSW 1020,7 11 0,0
10.12.2019 05:00:00 10,4 7,3 35 19 52 28 SSW 1021,9 11 0,0
10.12.2019 04:00:00 10,1 6,3 34 18 48 26 SW 1022,9 14 0,0
10.12.2019 03:00:00 9,7 5,6 31 17 - - SW 1024,2 15 0,0
10.12.2019 02:00:00 9,3 5,8 24 13 - - SW 1024,6 14 0,0
10.12.2019 01:00:00 8,6 4,9 22 12 - - SW 1025,2 15 0,0
10.12.2019 00:00:00 8,4 4,4 16 9 - - WSW 1026,1 14 0,0
09.12.2019 23:00:00 8,1 3,0 11 6 - - W 1026,0 13 0,0
09.12.2019 22:00:00 8,4 3,8 15 8 - - WNW 1026,2 13 0,0
09.12.2019 21:00:00 8,4 3,2 18 10 - - NW 1026,1 15 0,0
09.12.2019 20:00:00 8,6 3,5 24 13 - - NW 1025,6 13 0,0
09.12.2019 19:00:00 8,5 2,7 26 14 - - NW 1024,8 16 0,0
09.12.2019 18:00:00 8,9 2,7 34 18 48 26 NW 1024,0 17 0,0
09.12.2019 17:00:00 9,0 2,5 35 19 50 27 NW 1023,3 19 0,0
09.12.2019 16:00:00 9,1 3,0 37 20 57 31 NW 1021,9 14 0,0
09.12.2019 15:00:00 9,7 3,2 42 23 65 35 NW 1020,6 14 0,0
09.12.2019 14:00:00 10,1 3,5 48 26 67 36 NW 1018,8 13 0,0
09.12.2019 13:00:00 10,0 3,7 46 25 83 45 NW 1017,8 14 0,0
09.12.2019 12:00:00 10,3 3,7 50 27 72 39 NW 1016,3 17 0,0
09.12.2019 11:00:00 9,9 4,7 46 25 72 39 NW 1015,0 17 0,0
09.12.2019 10:00:00 9,7 5,3 50 27 78 42 NW 1012,9 13 0,0
09.12.2019 09:00:00 9,7 4,6 55 30 89 48 NW 1010,4 12 0,0
09.12.2019 08:00:00 9,4 5,1 59 32 91 49 NW 1007,5 11 0,0
09.12.2019 07:00:00 10,1 4,8 59 32 89 48 NW 1005,4 14 0,0
09.12.2019 06:00:00 10,2 5,5 65 35 96 52 NW 1002,3 11 0,0
09.12.2019 05:00:00 10,5 6,2 67 36 104 56 NW 999,8 9 0,0
09.12.2019 04:00:00 10,1 6,3 70 38 104 56 WNW 997,5 8 0,2
09.12.2019 03:00:00 9,5 6,2 81 44 106 57 WNW 996,7 6 0,8
09.12.2019 02:00:00 8,5 6,2 83 45 106 57 WNW 996,0 9 1,0
09.12.2019 01:00:00 10,1 5,3 72 39 96 52 W 995,9 10 0,0
09.12.2019 00:00:00 10,0 5,5 80 43 115 62 WNW 995,3 9 0,0
08.12.2019 23:00:00 10,0 6,8 80 43 115 62 W 994,5 9 0,0
08.12.2019 22:00:00 9,0 7,7 81 44 109 59 W 995,1 2,7 0,4
08.12.2019 21:00:00 9,0 5,9 54 29 104 56 W 997,9 8 0,2
08.12.2019 20:00:00 9,5 5,4 55 30 80 43 W 999,3 8 0,0
08.12.2019 19:00:00 8,9 4,3 61 33 81 44 W 1000,4 11 0,0
08.12.2019 18:00:00 6,8 5,3 68 37 98 53 W 1001,5 5 0,8
08.12.2019 17:00:00 9,4 4,2 65 35 85 46 W 1001,1 10 0,0
08.12.2019 16:00:00 8,7 4,9 65 35 89 48 W 1001,9 11 0,0
08.12.2019 15:00:00 8,2 5,0 67 36 89 48 W 1002,0 6 0,2
08.12.2019 14:00:00 9,5 6,2 70 38 89 48 W 1002,2 10 0,0
08.12.2019 13:00:00 9,8 6,4 50 27 76 41 W 1003,5 12 0,0
08.12.2019 12:00:00 10,5 6,4 54 29 70 38 W 1004,1 10 0,0
08.12.2019 11:00:00 10,6 5,8 54 29 76 41 W 1005,0 11 0,0
08.12.2019 10:00:00 10,7 6,4 54 29 78 42 W 1004,9 8 0,0
08.12.2019 09:00:00 10,4 6,8 48 26 68 37 W 1005,0 7 0,0
08.12.2019 08:00:00 10,7 7,0 50 27 72 39 W 1004,4 7 0,0
08.12.2019 07:00:00 11,1 7,5 50 27 70 38 W 1004,1 9 0,0
08.12.2019 06:00:00 11,5 6,8 50 27 74 40 W 1003,2 10 0,0
08.12.2019 05:00:00 11,9 7,5 52 28 72 39 W 1002,6 11 0,0
08.12.2019 04:00:00 12,1 12,0 59 32 78 42 WSW 1002,6 5 0,0
08.12.2019 03:00:00 11,9 11,7 57 31 78 42 WSW 1003,2 3,1 1,6
08.12.2019 02:00:00 11,3 11,1 54 29 78 42 SW 1004,6 2,2 2,6
08.12.2019 01:00:00 11,0 10,4 48 26 68 37 SW 1005,7 2,8 1,0
08.12.2019 00:00:00 11,4 9,6 50 27 68 37 SW 1006,9 8 0,0
07.12.2019 23:00:00 11,3 9,2 46 25 63 34 SW 1009,0 10 0,0
07.12.2019 22:00:00 11,4 9,2 46 25 59 32 SW 1010,5 11 0,0
07.12.2019 21:00:00 11,1 9,0 48 26 63 34 SW 1011,6 17 0,0
07.12.2019 20:00:00 10,9 9,3 42 23 52 28 SW 1012,6 11 0,0
07.12.2019 19:00:00 10,8 9,3 31 17 46 25 WSW 1013,2 13 0,0
07.12.2019 18:00:00 11,0 8,7 29 16 54 29 WSW 1014,0 19 0,0
07.12.2019 17:00:00 11,0 8,5 35 19 - - WSW 1014,3 17 0,0
07.12.2019 16:00:00 10,8 8,9 24 13 - - WSW 1014,6 17 0,0
07.12.2019 15:00:00 10,8 8,9 31 17 - - W 1014,8 13 0,0
07.12.2019 14:00:00 10,8 8,1 26 14 - - W 1014,9 20 0,0
07.12.2019 13:00:00 10,5 7,1 28 15 46 25 W 1015,3 21 0,0
07.12.2019 12:00:00 11,0 7,6 34 18 - - W 1015,7 21 0,0
07.12.2019 11:00:00 10,8 7,9 26 14 - - W 1016,2 12 0,0
07.12.2019 10:00:00 10,8 8,2 22 12 - - W 1016,1 14 0,0
07.12.2019 09:00:00 10,3 7,0 24 13 - - W 1016,4 20 0,0
07.12.2019 08:00:00 10,5 6,2 22 12 - - W 1015,9 30 0,0
07.12.2019 07:00:00 10,4 5,0 28 15 - - W 1015,3 29 0,0
07.12.2019 06:00:00 10,3 7,4 28 15 - - W 1014,8 18 0,0
07.12.2019 05:00:00 10,4 7,4 26 14 - - W 1014,3 20 0,0
07.12.2019 04:00:00 10,4 6,4 28 15 - - WNW 1013,8 25 0,0
07.12.2019 03:00:00 10,2 7,1 31 17 48 26 WNW 1013,5 15 0,0
07.12.2019 02:00:00 10,3 7,4 35 19 46 25 W 1012,9 20 0,0
07.12.2019 01:00:00 10,3 7,3 34 18 - - W 1012,6 14 0,0
07.12.2019 00:00:00 10,7 7,0 31 17 - - W 1012,4 18 0,0
06.12.2019 23:00:00 10,7 7,5 39 21 50 27 W 1012,3 16 0,0
06.12.2019 22:00:00 10,9 8,1 34 18 46 25 W 1011,7 14 0,0
06.12.2019 21:00:00 10,7 8,0 34 18 57 31 W 1010,7 16 0,0
06.12.2019 20:00:00 11,2 8,0 46 25 59 32 WNW 1009,5 13 0,0
06.12.2019 19:00:00 11,3 8,2 46 25 65 35 W 1008,5 13 0,0
06.12.2019 18:00:00 11,2 7,9 50 27 68 37 WNW 1007,3 13 0,0
06.12.2019 17:00:00 11,2 8,7 50 27 63 34 W 1006,4 13 0,0
06.12.2019 16:00:00 10,5 10,1 39 21 59 32 W 1005,7 11 5,0
06.12.2019 15:00:00 11,9 10,4 44 24 63 34 W 1005,2 8 0,0
06.12.2019 14:00:00 11,9 11,2 44 24 57 31 WSW 1005,5 10 0,0
06.12.2019 13:00:00 11,7 11,6 44 24 65 35 WSW 1006,3 6 0,2
06.12.2019 12:00:00 11,7 11,7 54 29 68 37 WSW 1006,9 7 0,0
06.12.2019 11:00:00 11,8 11,8 55 30 70 38 WSW 1007,8 4,6 0,0
06.12.2019 10:00:00 11,9 11,7 54 29 72 39 WSW 1007,9 2,7 0,0
06.12.2019 09:00:00 11,9 11,7 55 30 76 41 WSW 1008,3 8 0,0
06.12.2019 08:00:00 11,8 11,5 54 29 74 40 WSW 1008,8 7 0,0
06.12.2019 07:00:00 11,7 11,4 55 30 74 40 WSW 1009,3 6 0,4
06.12.2019 06:00:00 11,7 11,3 52 28 68 37 WSW 1010,0 6 0,0
06.12.2019 05:00:00 11,6 11,3 52 28 68 37 WSW 1010,5 7 0,2
06.12.2019 04:00:00 11,4 11,1 46 25 65 35 WSW 1011,3 2,3 0,0
06.12.2019 03:00:00 11,4 11,1 41 22 55 30 WSW 1012,1 6 0,0
06.12.2019 02:00:00 11,2 11,0 41 22 63 34 WSW 1013,0 2,4 0,2
06.12.2019 01:00:00 11,1 10,8 44 24 59 32 WSW 1013,7 4,3 0,2
06.12.2019 00:00:00 10,9 10,6 44 24 63 34 WSW 1014,3 7 0,0
05.12.2019 23:00:00 10,6 10,2 48 26 67 36 WSW 1015,2 5 0,0
05.12.2019 22:00:00 10,7 9,6 46 25 67 36 WSW 1016,0 8 0,0
05.12.2019 21:00:00 11,0 8,8 46 25 67 36 WSW 1016,6 9 0,0
05.12.2019 20:00:00 10,9 8,2 48 26 67 36 WSW 1017,2 13 0,0
05.12.2019 19:00:00 10,8 7,8 48 26 63 34 WSW 1017,6 13 0,0
05.12.2019 18:00:00 10,8 7,3 50 27 63 34 WSW 1017,9 15 0,0
05.12.2019 17:00:00 10,8 7,6 48 26 59 32 WSW 1018,0 17 0,0
05.12.2019 16:00:00 10,8 8,1 41 22 55 30 WSW 1018,7 13 0,0
05.12.2019 15:00:00 10,7 7,9 39 21 50 27 WSW 1019,3 21 0,0
05.12.2019 14:00:00 10,5 7,6 37 20 48 26 WSW 1019,6 20 0,0
05.12.2019 13:00:00 10,5 7,7 34 18 - - W 1020,6 14 0,0
05.12.2019 12:00:00 10,4 8,2 31 17 - - W 1021,6 17 0,0
05.12.2019 11:00:00 10,2 7,9 29 16 - - W 1022,1 19 0,0
05.12.2019 10:00:00 9,9 8,4 22 12 - - W 1022,2 29 0,0
05.12.2019 09:00:00 9,0 7,4 15 8 - - W 1022,6 28 0,0
05.12.2019 08:00:00 9,1 7,3 22 12 - - WNW 1022,2 40 0,0
05.12.2019 07:00:00 9,2 7,2 21 11 - - W 1022,2 40 0,0

tt = temperature
td = dewpoint
ff = wind speed
fx = gusts
dd = wind direction
ppp = reduced air pressure
vv = visibility
rr = precipitation

Next stations